Regional Weather Roundup
Issued by NWS

Home | Current Version | Previous Version | Text Only | Print | Product List | Glossary Off
Versions: 1 2 3 4 5 6 7 8 9 10 11 12 13 14 15 16 17 18 19 20 21 22 23 24 25 26 27 28 29 30 31 32 33 34 35 36 37 38 39 40 41 42 43 44 45 46 47 48 49 50

000
ASUS43 KLSX 271507
RWRMO

WEATHER SUMMARY FOR MISSOURI
NATIONAL WEATHER SERVICE SPRINGFIELD MO
900 AM CST TUE JAN 27 2015

NOTE: "FAIR" INDICATES FEW OR NO CLOUDS BELOW 12,000 FEET WITH NO
       SIGNIFICANT WEATHER AND/OR OBSTRUCTIONS TO VISIBILITY.
       CURRENT SKY AND/OR WEATHER CONDITIONS ARE NOT AVAILABLE FOR
       CHILLICOTHE AND FARMINGTON.

MOZ001>031-035>038-043-044-053-054-271600-
...NORTHERN AND WESTERN MISSOURI...

CITY           SKY/WX    TMP DP  RH WIND       PRES   REMARKS
KANSAS CTY INT MOSUNNY   39  33  79 NE3       30.15S
KANSAS C DTWN  SUNNY     36  32  85 CALM      30.16S
LEE`S SUMMIT   SUNNY     39  33  79 NE5       30.16R
ST JOSEPH      SUNNY     30  30 100 CALM      30.17R
CHILLICOTHE      N/A     37  32  82 NW5       30.17R
KIRKSVILLE     MOSUNNY   35  31  85 N3        30.16R

$$
MOZ066>068-077>081-088>096-101>105-271600-
...SOUTHWEST MISSOURI...

CITY           SKY/WX    TMP DP  RH WIND       PRES   REMARKS
SPRINGFIELD    SUNNY     41  33  73 CALM      30.14R
JOPLIN         SUNNY     42  35  76 CALM      30.16R

$$
MOZ032>034-039>042-045>050-055>058-069>072-271600-
...CENTRAL MISSOURI...

CITY           SKY/WX    TMP DP  RH WIND       PRES   REMARKS
COLUMBIA       SUNNY     37  33  85 NW7       30.14R
JEFFERSON CITY SUNNY     33  31  92 NW3       30.16R
ROLLA          SUNNY     37  32  82 N8        30.11R
SEDALIA        SUNNY     38  33  82 N5        30.16R
WHITEMAN AFB   SUNNY     38  34  84 N6        30.15R
WARRENSBURG    SUNNY     36  32  87 CALM      30.16R
OSAGE BEACH    SUNNY     39  30  70 N3        30.15R

$$
MOZ051-052-059>065-271600-
...EAST CENTRAL MISSOURI...

CITY           SKY/WX    TMP DP  RH WIND       PRES   REMARKS
ST LOUIS INTL  MOSUNNY   39  34  81 NW7       30.13R
SPIRIT OF STL  SUNNY     38  33  82 NW5       30.13R
ST CHARLES     SUNNY     37  34  89 NW6       30.12R

$$
MOZ072>076-082>087-097>100-106>115-271600-
...SOUTH CENTRAL AND SOUTHEAST MISSOURI...

CITY           SKY/WX    TMP DP  RH WIND       PRES   REMARKS
CAPE GIRARDEAU PTSUNNY   39  35  86 NW9       30.11R
FARMINGTON     CLOUDY    39  34  81 MISG      30.13R
POPLAR BLUFF   CLOUDY    40  34  79 NW3       30.12R
WEST PLAINS    SUNNY     42  33  70 N10       30.12R

$$


USA.gov is the U.S. government's official web portal to all federal, state and local government web resources and services.